Location: Bakhuizen
(52.8696°N, 5.4575°E)
Time: 15:46:26
(UTC+00:00)

Cosmos 1833 - Pass Details

Date: 28 September 2021
Orbit: 834 x 864 km, 70.9° (Epoch: 26 October)

Event Time Altitude Azimuth Distance (km) Brightness Sun altitude
Rises 20:30:27 0° 315° (NW) 3,397 8.6 -27.6°
Reaches altitude 10° 20:34:43 10° 284° (WNW) 2,453 7.4 -28.1°
Maximum altitude 20:36:30 12° 265° (W) 2,340 7.0 -28.3°
Drops below altitude 10° 20:38:17 10° 247° (WSW) 2,446 6.9 -28.5°
Sets 20:42:32 0° 216° (SW) 3,374 7.3 -29.0°
Enters shadow 20:42:33 - 216° (SW) 3,375 7.3 -29.0°
